Overview Statistics Trail Chart Weather Telemetry Raw packets
 

This is the latest recevied weather packets stored in our database for station/object VE8SKI. If no packets are shown the sender has not sent any weather packets the latest 10 day(s).

<< 1 2 3 4 5 6 7 >>
Time Temp. Humidity Pressure Rain* Wind** Luminosity Snow
1778083719 6.11° C 45% 1012.7 hPa 0 mm 3.58 m/s, 191° - -
1778083420 5.56° C 44% 1012.8 hPa 0 mm 4.47 m/s, 238° - -
1778083120 5.56° C 45% 1012.8 hPa 0 mm 4.02 m/s, 160° - -
1778082818 5.56° C 45% 1012.9 hPa 0 mm 3.13 m/s, 288° - -
1778082518 6.11° C 45% 1013 hPa 0 mm 2.68 m/s, 224° - -
1778082219 5.56° C 45% 1013.1 hPa 0 mm 3.13 m/s, 266° - -
1778081919 5.56° C 44% 1013.2 hPa 0 mm 3.58 m/s, 193° - -
1778081620 5.56° C 44% 1013.3 hPa 0 mm 3.58 m/s, 181° - -
1778081320 5.56° C 44% 1013.4 hPa 0 mm 3.13 m/s, 200° - -
1778081018 5.56° C 46% 1013.5 hPa 0 mm 3.58 m/s, 160° - -
1778080719 5° C 45% 1013.5 hPa 0 mm 4.92 m/s, 225° - -
1778080419 5° C 46% 1013.5 hPa 0 mm 4.02 m/s, 219° - -
1778080120 5° C 46% 1013.6 hPa 0 mm 4.47 m/s, 212° - -
1778079820 5° C 46% 1013.7 hPa 0 mm 4.02 m/s, 263° - -
1778079521 5° C 46% 1013.7 hPa 0 mm 4.47 m/s, 245° - -
1778079218 5° C 46% 1013.8 hPa 0 mm 4.02 m/s, 139° - -
1778078919 4.44° C 46% 1013.9 hPa 0 mm 4.47 m/s, 218° - -
1778078619 4.44° C 46% 1013.9 hPa 0 mm 4.47 m/s, 198° - -
1778078320 4.44° C 47% 1014 hPa 0 mm 4.47 m/s, 180° - -
1778078020 4.44° C 47% 1014.1 hPa 0 mm 4.92 m/s, 131° - -
1778077720 3.89° C 48% 1014.1 hPa 0 mm 3.58 m/s, 276° - -
1778077418 3.89° C 49% 1014.2 hPa 0 mm 4.02 m/s, 250° - -
1778077118 3.89° C 49% 1014.3 hPa 0 mm 3.13 m/s, 204° - -
1778076831 3.89° C 48% 1014.4 hPa 0 mm 4.02 m/s, 249° - -
1778076519 3.89° C 49% 1014.4 hPa 0 mm 4.92 m/s, 240° - -

* Rain latest hour (hover to see other rain measurements)
** Current wind speed in m/s (hover to see current wind gust speed)